Location: Newark
(58.8333°N, 23.5833°E)
Time: 11:33:40
(UTC+00:00)

Explorer 7 - Pass Details

Date: 18 November 2019
Orbit: 485 x 680 km, 50.3° (Epoch: 11 December)

Event Time Altitude Azimuth Distance (km) Brightness Sun altitude
Rises 00:43:12 0° 235° (SW) 2,872 - -41.7°
Reaches altitude 10° 00:45:54 10° 221° (SW) 1,931 - -41.4°
Maximum altitude 00:49:24 24° 168° (SSE) 1,224 - -41.0°
Drops below altitude 10° 00:52:45 10° 115° (ESE) 1,833 - -40.7°
Sets 00:55:14 0° 101° (E) 2,691 - -40.4°
